Sun Princess — ZCBU6 — position and weather

sailwx.info

Track history (hours):
 
Tides and Currents Weather Stations Pressure Air Temp Water Temp Dewpoint Dewpoint Depression Visibility Wind Speed Wind Dir Waves Ship Positions

Sun Princess

Operator: Princess Cruises

Last reported at 2019-Jul-18 11:45 UTC. Time now 2019-Jul-19 18:33 UTC.
Position N 33°55' E 134°53'.

Length 261.3 m; beam 32.3 m; draft 8.1 m.

Type: Passenger vessel. MMSI: 310438000.

Date/timePositionNaut miles runAvg speedWind from/ knotsBaromVisibWave heightAir tempDewpointWater temp
2019-Jul-18 11:45N 33°55' E 134°53'620.1
2019-Jul-18 11:28N 34°01' E 134°54'919.3
2019-Jul-18 11:00N 34°09' E 134°56'713.4
2019-Jul-18 10:30N 34°16' E 134°58'714.4
2019-Jul-18 10:01N 34°23' E 135°00'917.9
2019-Jul-18 09:31N 34°29' E 135°08'917.1
2019-Jul-18 09:01N 34°35' E 135°15'510.4
2019-Jul-18 08:30N 34°41' E 135°14'2 3.2
2019-Jul-18 07:58N 34°41' E 135°12'0 0.0
2019-Jul-18 07:28N 34°41' E 135°12'0 0.1
2019-Jul-18 06:58N 34°41' E 135°12'0 0.0
2019-Jul-18 06:28N 34°41' E 135°12'0 0.0
2019-Jul-18 05:58N 34°41' E 135°12'0 0.1
2019-Jul-18 05:28N 34°41' E 135°12'0 0.1
2019-Jul-18 04:58N 34°41' E 135°12'0 0.0
2019-Jul-18 04:28N 34°41' E 135°12'0 0.0
2019-Jul-18 03:58N 34°41' E 135°12'0 0.0
2019-Jul-18 03:28N 34°41' E 135°12'0 0.0
2019-Jul-18 02:58N 34°41' E 135°12'0 0.0
2019-Jul-18 02:28N 34°41' E 135°12'0 0.0
2019-Jul-18 01:55N 34°41' E 135°12'0 0.0
2019-Jul-18 01:28N 34°41' E 135°12'0 0.0
2019-Jul-18 00:58N 34°41' E 135°12'0 0.0
2019-Jul-18 00:28N 34°41' E 135°12'0 0.0
2019-Jul-17 23:58N 34°41' E 135°12'0 0.2
2019-Jul-17 23:30N 34°41' E 135°12'2 4.5
2019-Jul-17 23:00N 34°40' E 135°15'3 7.0
2019-Jul-17 22:31N 34°37' E 135°17'510.7
2019-Jul-17 22:00N 34°33' E 135°13'918.0
2019-Jul-17 21:30N 34°26' E 135°06'917.9
2019-Jul-17 21:00N 34°18' E 134°60'816.4
2019-Jul-17 20:31N 34°10' E 134°60'611.5
2019-Jul-17 20:00N 34°04' E 134°59'611.9
2019-Jul-17 19:30N 33°59' E 134°59'1012.2
2019-Jul-17 18:42N 33°49' E 135°01'239 7.4
2019-Jul-16 10:32N 35°01' E 139°37'118.4
2019-Jul-16 10:28N 35°02' E 139°38'818.5
2019-Jul-16 10:01N 35°09' E 139°44'612.5
2019-Jul-16 09:30N 35°15' E 139°46'612.0
2019-Jul-16 09:00N 35°20' E 139°42'612.5
2019-Jul-16 08:30N 35°26' E 139°42'3 5.9
2019-Jul-16 08:00N 35°27' E 139°39'0 0.0
2019-Jul-16 07:30N 35°27' E 139°39'0 0.0
2019-Jul-16 07:00N 35°27' E 139°39'0 0.0
2019-Jul-16 06:30N 35°27' E 139°39'0 0.0
2019-Jul-16 06:00N 35°27' E 139°39'0 0.0
2019-Jul-16 05:30N 35°27' E 139°39'0 0.0
2019-Jul-16 05:00N 35°27' E 139°39'0 0.0
2019-Jul-16 04:30N 35°27' E 139°39'0 0.0
2019-Jul-16 04:00N 35°27' E 139°39'0 0.0
2019-Jul-16 03:30N 35°27' E 139°39'0 0.0
2019-Jul-16 02:57N 35°27' E 139°39'0 0.0
2019-Jul-16 02:27N 35°27' E 139°39'0 0.0
2019-Jul-16 02:00N 35°27' E 139°39'0 0.0
2019-Jul-16 01:30N 35°27' E 139°39'0 0.0
2019-Jul-16 01:00N 35°27' E 139°39'0 0.0
2019-Jul-16 00:30N 35°27' E 139°39'0 0.0
2019-Jul-16 00:00N 35°27' E 139°39'0 0.0
2019-Jul-15 23:30N 35°27' E 139°39'0 0.0
2019-Jul-15 23:00N 35°27' E 139°39'0 0.7
2019-Jul-15 22:30N 35°27' E 139°39'1 2.7
2019-Jul-15 22:00N 35°27' E 139°41'3 6.4
2019-Jul-15 21:30N 35°24' E 139°43'611.3
2019-Jul-15 21:00N 35°19' E 139°44'612.1
2019-Jul-15 20:30N 35°13' E 139°47'1010.8
2019-Jul-15 19:36N 35°04' E 139°45'211.7
2019-Jul-15 19:26N 35°02' E 139°44'511.8
2019-Jul-15 19:00N 34°57' E 139°42'711.4
2019-Jul-15 18:25N 34°52' E 139°47'1911.9
2019-Jul-15 16:48N 34°56' E 140°10'412.2
2019-Jul-15 16:27N 34°58' E 140°15'31516.2
2019-Jul-14 21:00N 38°06' E 145°30'59117.9 310 / 71004.310.8 19.818.521.6
2019-Jul-13 12:00N 43°12' E 156°36'7819.6 160 / 61015.410.8 11.010.012.8
2019-Jul-13 08:00N 43°48' E 158°12'42019.1 270 / 81014.310.8 10.5 7.412.0
2019-Jul-12 10:00N 46°36' E 167°18'6020.1 270 / 201004.4 7.0 4.7 7.0
2019-Jul-12 07:00N 46°54' E 168°42'41820.9 250 / 211002.5 0.1 8.0 6.9 7.8
2019-Jul-11 11:00N 48°48' E 178°42'   090 / 151002.410.8 8.5 7.4 8.5
Track history (hours):
 
Tides and Currents Weather Stations Pressure Air Temp Water Temp Dewpoint Dewpoint Depression Visibility Wind Speed Wind Dir Waves Ship Positions

Sun Princess

Operator: Princess Cruises

Last reported at 2019-Jul-18 11:45 UTC. Time now 2019-Jul-19 18:33 UTC.
Position N 33°55' E 134°53'.

Length 261.3 m; beam 32.3 m; draft 8.1 m.

Type: Passenger vessel. MMSI: 310438000.

Date/timePositionNaut miles runAvg speedWind from/ knotsBaromVisibWave heightAir tempDewpointWater temp
2019-Jul-18 11:45N 33°55' E 134°53'620.1
2019-Jul-18 11:28N 34°01' E 134°54'919.3
2019-Jul-18 11:00N 34°09' E 134°56'713.4
2019-Jul-18 10:30N 34°16' E 134°58'714.4
2019-Jul-18 10:01N 34°23' E 135°00'917.9
2019-Jul-18 09:31N 34°29' E 135°08'917.1
2019-Jul-18 09:01N 34°35' E 135°15'510.4
2019-Jul-18 08:30N 34°41' E 135°14'2 3.2
2019-Jul-18 07:58N 34°41' E 135°12'0 0.0
2019-Jul-18 07:28N 34°41' E 135°12'0 0.1
2019-Jul-18 06:58N 34°41' E 135°12'0 0.0
2019-Jul-18 06:28N 34°41' E 135°12'0 0.0
2019-Jul-18 05:58N 34°41' E 135°12'0 0.1
2019-Jul-18 05:28N 34°41' E 135°12'0 0.1
2019-Jul-18 04:58N 34°41' E 135°12'0 0.0
2019-Jul-18 04:28N 34°41' E 135°12'0 0.0
2019-Jul-18 03:58N 34°41' E 135°12'0 0.0
2019-Jul-18 03:28N 34°41' E 135°12'0 0.0
2019-Jul-18 02:58N 34°41' E 135°12'0 0.0
2019-Jul-18 02:28N 34°41' E 135°12'0 0.0
2019-Jul-18 01:55N 34°41' E 135°12'0 0.0
2019-Jul-18 01:28N 34°41' E 135°12'0 0.0
2019-Jul-18 00:58N 34°41' E 135°12'0 0.0
2019-Jul-18 00:28N 34°41' E 135°12'0 0.0
2019-Jul-17 23:58N 34°41' E 135°12'0 0.2
2019-Jul-17 23:30N 34°41' E 135°12'2 4.5
2019-Jul-17 23:00N 34°40' E 135°15'3 7.0
2019-Jul-17 22:31N 34°37' E 135°17'510.7
2019-Jul-17 22:00N 34°33' E 135°13'918.0
2019-Jul-17 21:30N 34°26' E 135°06'917.9
2019-Jul-17 21:00N 34°18' E 134°60'816.4
2019-Jul-17 20:31N 34°10' E 134°60'611.5
2019-Jul-17 20:00N 34°04' E 134°59'611.9
2019-Jul-17 19:30N 33°59' E 134°59'1012.2
2019-Jul-17 18:42N 33°49' E 135°01'239 7.4
2019-Jul-16 10:32N 35°01' E 139°37'118.4
2019-Jul-16 10:28N 35°02' E 139°38'818.5
2019-Jul-16 10:01N 35°09' E 139°44'612.5
2019-Jul-16 09:30N 35°15' E 139°46'612.0
2019-Jul-16 09:00N 35°20' E 139°42'612.5
2019-Jul-16 08:30N 35°26' E 139°42'3 5.9
2019-Jul-16 08:00N 35°27' E 139°39'0 0.0
2019-Jul-16 07:30N 35°27' E 139°39'0 0.0
2019-Jul-16 07:00N 35°27' E 139°39'0 0.0
2019-Jul-16 06:30N 35°27' E 139°39'0 0.0
2019-Jul-16 06:00N 35°27' E 139°39'0 0.0
2019-Jul-16 05:30N 35°27' E 139°39'0 0.0
2019-Jul-16 05:00N 35°27' E 139°39'0 0.0
2019-Jul-16 04:30N 35°27' E 139°39'0 0.0
2019-Jul-16 04:00N 35°27' E 139°39'0 0.0
2019-Jul-16 03:30N 35°27' E 139°39'0 0.0
2019-Jul-16 02:57N 35°27' E 139°39'0 0.0
2019-Jul-16 02:27N 35°27' E 139°39'0 0.0
2019-Jul-16 02:00N 35°27' E 139°39'0 0.0
2019-Jul-16 01:30N 35°27' E 139°39'0 0.0
2019-Jul-16 01:00N 35°27' E 139°39'0 0.0
2019-Jul-16 00:30N 35°27' E 139°39'0 0.0
2019-Jul-16 00:00N 35°27' E 139°39'0 0.0
2019-Jul-15 23:30N 35°27' E 139°39'0 0.0
2019-Jul-15 23:00N 35°27' E 139°39'0 0.7
2019-Jul-15 22:30N 35°27' E 139°39'1 2.7
2019-Jul-15 22:00N 35°27' E 139°41'3 6.4
2019-Jul-15 21:30N 35°24' E 139°43'611.3
2019-Jul-15 21:00N 35°19' E 139°44'612.1
2019-Jul-15 20:30N 35°13' E 139°47'1010.8
2019-Jul-15 19:36N 35°04' E 139°45'211.7
2019-Jul-15 19:26N 35°02' E 139°44'511.8
2019-Jul-15 19:00N 34°57' E 139°42'711.4
2019-Jul-15 18:25N 34°52' E 139°47'1911.9
2019-Jul-15 16:48N 34°56' E 140°10'412.2
2019-Jul-15 16:27N 34°58' E 140°15'31516.2
2019-Jul-14 21:00N 38°06' E 145°30'59117.9 310 / 71004.310.8 19.818.521.6
2019-Jul-13 12:00N 43°12' E 156°36'7819.6 160 / 61015.410.8 11.010.012.8
2019-Jul-13 08:00N 43°48' E 158°12'42019.1 270 / 81014.310.8 10.5 7.412.0
2019-Jul-12 10:00N 46°36' E 167°18'6020.1 270 / 201004.4 7.0 4.7 7.0
2019-Jul-12 07:00N 46°54' E 168°42'41820.9 250 / 211002.5 0.1 8.0 6.9 7.8
2019-Jul-11 11:00N 48°48' E 178°42'   090 / 151002.410.8 8.5 7.4 8.5

Dump ship's entire track history